CZ-6A DEB, 61326

Orbit data source: Space-Track

CZ-6A DEB, 61326 is space debris in LEO originally from a launch on Tue, 06 Aug 2024 UTC launched from the Taiyaun Space Center, China (TSC). Debris objects in space refer to the collection of defunct objects orbiting the Earth. Examples of debris include non-operational satellites, rocket bodies, and fragments generated from explosions, collisions, or faulty payload assembly.

Loading next visibility...
Identifier
61326, 2024-140UP
Orbit
LEO
Country
Flag of CNCN / PRC
Related business
Manufacturer
SAST
Mission
Spacecraft
Bus & Motor
Unknown
Mass
Unknown
Launch date (UTC)
2024-08-06 (2 years ago)
Launch vehicle
Unknown
Launch site
Taiyaun Space Center, China (TSC)
Object type
Payload
Rocket body
Debris
Shape & HBR
Unknown shape, 0.1 m
Radar Cross Section
Small (<0.1 m²)

Expand to show TLE details & history
Last TLE update: 16 hours ago

TLE from 16 hours ago
0 CZ-6A DEB
1 61326U 24140UP  26171.31067927  .00004087  00000-0  65022-3 0  9998
2 61326  89.1904 284.9177 0114694 218.3044 140.9987 14.67519527 95779
Epoch: 2026-06-20T07:27Z
TLE epoch observation values (Epoch: 2026-06-20T07:27:22.688Z)
Latitude
-0.00009°
Longitude
-95.45397°
Altitude
735.308 km
Speed
7.454 km/s
True Right ascension
18h 59m 40s
True Declination
0° 00' 00"
Sunlit
Object was in full shadow at epoch
Visualization orbit readout
Latitude
Unknown
Longitude
Unknown
Altitude
Unknown
Speed
Unknown
Apparent Right ascension
Unknown
Apparent Declination
Unknown
Sunlit
N/A
Visualization observer readout
Local Sidereal Time
10:18:05
Azimuth
Unknown
Elevation
Unknown
Doppler factor
Unknown
Orbital elements
Apogee altitude
746.67 km
Perigee altitude
585.089 km
Semi-major axis
7,044.017 km
Eccentricity
0.01147
Inclination
89.1904°
RAAN
284.9177°
Arg. of periapsis
218.3044°
True anomaly
141.81669°
Mean anomaly
140.9987°
Eccentric anomaly
141.4086°
Mean motion
3.67124 °/min
Orbital period
98.06 mins
BSTAR
0.00065022
Loading maneuver chart data...
Computing Atmospheric mass density...
Loading historical data...
Loading historical data...
Loading historical data...
Loading historical data...
Loading historical data...
Loading historical data...
Loading historical data...

Documentation

Showing up to 5 results
|